Temperature
20 19 20 20 20 20 20 20 20 20 20 20 20 20 20 20 19 19 19 19 19 19 19 18 18 18 18 18 18 18 18 18 18 18 18 18 18 17 17 17 17 17 18
20 20 20 20 20 20 20 20 20 20 20 20 20 20 20 19 19 19 19 19 19 19 19 19 19 18 18 18 18 18 18 18 18 18 18 18 17 17 17 17 17 17 17
20 20 20 20 20 20 20 20 20 20 20 20 20 20 19 19 19 19 19 19 19 19 19 19 19 19 19 18 18 18 18 18 18 18 17 17 17 17 17 17 17 18 17
20 20 20 20 20 20 20 20 20 20 20 20 20 19 19 19 19 19 19 19 19 19 19 19 19 19 19 19 18 18 18 18 18 17 17 17 17 17 17 17 17 17 17
19 19 20 20 20 20 20 20 20 20 20 20 20 19 19 19 19 19 19 19 19 19 19 19 19 19 19 19 18 18 18 18 17 17 17 17 17 17 17 17 17 17 17
19 19 19 20 20 20 20 20 20 20 19 19 19 19 19 19 19 19 19 19 18 18 18 18 19 19 19 19 18 18 18 18 17 17 17 17 17 18 17 17 17 17 17
19 19 19 20 19 19 19 19 19 19 19 19 19 19 19 19 19 19 18 18 18 18 18 18 18 18 19 19 18 18 18 18 17 17 17 17 17 17 17 17 17 17 17
20 19 19 19 19 19 19 19 19 19 19 19 19 19 19 19 19 18 18 18 18 18 18 18 18 18 18 18 18 18 18 18 17 17 17 17 17 17 17 17 17 17 17
19 19 18 19 19 19 19 19 19 19 19 19 19 19 19 19 19 18 18 18 18 18 18 18 18 18 18 18 18 18 18 18 17 17 17 17 17 18 17 17 17 17 17
19 19 18 18 18 18 19 19 19 19 19 19 19 19 19 18 18 18 18 18 18 18 18 18 18 18 18 18 18 18 18 18 17 18 17 17 18 18 17 17 17 17 17
19 19 19 18 18 18 18 18 19 19 19 19 18 18 18 18 18 18 18 18 18 18 18 18 18 18 18 18 18 18 18 17 17 18 18 17 18 18 18 17 17 17 17
18 18 18 18 18 18 18 18 18 18 18 18 18 18 18 18 17 17 17 18 18 18 18 18 18 17 17 17 18 18 17 17 17 18 18 18 18 18 18 17 17 17 17
18 18 18 18 18 18 18 18 18 18 18 18 18 18 18 18 17 17 17 17 17 17 17 17 17 17 17 17 17 17 17 17 17 18 18 18 18 18 18 18 17 17 17
19 19 18 18 18 18 18 18 18 18 18 18 18 18 17 17 17 17 17 17 17 17 17 17 17 17 17 17 17 17 17 17 17 17 17 17 18 18 18 18 17 17 17
18 18 18 19 19 19 19 18 18 18 17 17 17 17 17 17 17 17 17 17 17 17 16 17 17 16 17 17 17 17 17 17 17 17 17 17 18 18 18 18 18 17 17
18 18 19 19 19 19 18 18 18 17 17 17 17 17 17 16 16 16 16 16 16 16 16 16 16 16 16 16 16 16 17 17 17 17 17 17 17 18 18 18 18 18 17
18 19 19 19 18 18 18 18 17 17 17 17 16 16 16 16 16 16 15 15 15 15 15 15 15 15 16 16 16 16 16 16 16 16 16 17 17 17 17 17 18 18 17
18 18 18 18 18 18 18 17 17 17 17 16 16 16 15 15 15 15 15 15 15 15 15 15 15 15 15 15 15 15 16 16 16 16 16 16 16 16 17 17 17 17 17
18 18 18 18 18 17 17 17 17 17 16 16 15 15 15 15 14 14 14 14 14 14 14 14 14 14 14 14 15 15 15 15 16 16 16 16 16 16 16 16 17 17 17
18 18 18 18 18 17 17 17 16 16 16 15 15 15 14 14 14 14 14 13 13 13 13 13 13 13 13 14 14 15 15 15 15 16 16 16 16 16 16 16 16 16 17
18 18 18 17 18 17 17 16 16 16 15 15 14 14 14 13 13 13 13 13 13 13 12 13 13 13 13 13 14 15 15 15 16 15 15 16 16 16 16 16 16 16 16
17 18 18 18 17 17 16 16 16 16 15 15 14 13 13 13 13 12 12 12 12 12 12 12 12 12 13 13 13 14 16 16 16 16 15 15 15 15 15 15 15 16 16
18 18 17 17 17 17 16 16 15 15 15 14 14 13 13 12 12 12 11 11 11 11 12 11 11 12 12 13 13 13 15 16 16 16 15 15 15 15 15 15 15 15 15
18 18 17 17 17 17 16 16 15 15 15 14 13 13 12 12 11 11 11 11 11 11 11 11 12 11 11 12 13 12 13 13 13 15 15 15 14 14 14 14 15 15 15
18 17 17 17 17 16 16 15 15 14 14 14 13 12 12 12 11 11 10 10 10 10 10 10 10 10 11 11 12 12 13 12 12 13 14 14 14 14 14 14 14 14 15
18 18 17 17 17 16 16 15 15 14 13 13 12 12 12 12 11 11 10 10 10 10 10 10 10 10 10 10 11 11 12 12 13 13 13 13 14 14 14 14 14 14 15
Wind_Speed
14 17 18 14 12 12 12 14 15 15 15 15 15 14 13 12 12 11 10 8 7 7 6 6 6 7 7 8 9 9 9 9 10 10 11 11 12 13 14 15 14 16 17
17 19 18 15 13 13 13 13 14 14 14 14 14 13 13 12 11 10 9 8 7 6 6 6 6 6 7 8 8 9 9 9 9 10 11 12 12 12 12 11 9 16 16
18 19 18 15 14 13 13 13 13 13 13 13 13 12 11 11 10 9 8 7 6 5 5 5 5 6 6 7 7 8 7 7 8 8 9 11 13 11 11 11 16 17 16
17 18 17 17 14 14 13 13 13 13 12 12 11 11 10 9 9 8 7 6 5 4 4 4 5 5 5 6 6 6 6 7 7 7 7 9 11 12 11 13 15 15 15
16 16 18 17 15 14 13 13 13 12 12 11 10 9 9 8 7 6 6 5 5 4 4 4 4 4 4 5 5 5 5 6 5 7 5 7 10 12 12 13 14 14 14
15 16 18 16 15 14 13 13 12 12 11 10 9 8 7 7 6 5 5 4 4 4 4 4 4 4 4 4 4 4 4 5 8 5 5 5 9 12 12 12 13 14 14
15 15 18 16 15 14 13 12 12 11 10 10 9 8 7 6 5 5 5 4 4 4 4 4 4 5 5 5 4 4 4 5 7 3 4 4 9 12 11 12 12 13 13
14 14 17 15 13 13 12 11 11 10 10 9 9 8 7 6 6 6 5 5 5 5 5 5 5 5 6 6 6 6 6 8 7 5 4 4 10 11 10 12 12 13 13
12 12 13 14 13 11 10 10 10 9 8 8 7 7 7 7 7 7 7 7 6 6 7 6 7 7 7 7 7 7 8 9 10 6 6 5 11 10 11 11 12 13 13
10 10 10 10 10 10 11 10 8 7 7 6 6 6 6 7 8 8 9 8 7 7 7 7 7 8 9 9 9 9 9 10 13 9 8 8 13 12 12 12 13 13 13
9 8 8 8 7 7 7 8 8 7 7 7 7 7 6 7 7 8 8 4 5 7 8 8 8 9 10 12 12 12 11 12 13 11 9 9 13 13 13 14 14 15 15
10 8 6 5 6 5 5 5 5 5 5 5 4 5 6 4 5 7 2 3 5 7 9 9 10 10 12 11 12 14 12 14 13 11 9 12 13 14 15 16 16 16 16
10 8 8 6 5 5 3 3 2 1 1 3 3 3 3 4 5 6 5 4 5 7 8 8 9 9 9 9 9 11 12 12 11 12 11 15 15 16 16 17 18 18 19
9 8 7 6 5 3 1 1 0 0 1 2 1 2 3 3 4 4 4 5 5 4 6 7 6 8 9 10 11 12 13 13 12 12 10 15 17 18 18 18 19 20 21
9 8 6 5 5 4 2 1 0 0 1 1 2 2 2 3 3 3 3 3 4 5 5 5 6 7 8 9 11 12 12 14 15 15 12 13 17 19 20 20 20 21 22
8 7 6 6 5 4 3 2 1 1 1 1 2 3 3 2 2 2 3 3 4 5 5 5 6 7 7 7 9 10 12 14 15 15 16 14 17 20 21 21 22 22 23
7 7 6 6 5 5 4 3 2 2 2 2 3 3 3 3 3 3 3 3 3 5 5 5 6 6 7 8 9 10 11 12 14 15 16 15 16 20 23 23 23 23 23
8 7 6 5 6 5 3 2 2 2 2 2 2 2 2 3 3 4 4 3 4 5 5 4 5 6 7 7 8 8 9 10 13 14 15 16 16 16 20 25 25 24 24
7 7 7 6 6 5 4 3 3 2 2 1 1 2 2 2 3 4 4 4 6 6 5 6 5 6 7 7 8 9 9 10 11 13 13 16 17 17 17 19 25 26 26
7 6 6 6 5 5 4 3 2 2 1 0 1 2 3 3 4 6 5 4 7 7 6 5 6 6 8 8 9 10 10 11 11 12 13 13 15 17 18 18 18 21 27
7 7 6 6 6 4 3 3 2 2 1 1 1 1 2 4 4 5 6 5 6 7 7 8 7 8 8 7 9 10 10 11 10 9 10 10 12 14 15 16 17 17 18
8 7 7 7 6 6 3 2 2 2 3 2 2 1 3 3 4 5 5 7 6 6 7 7 7 8 8 6 8 9 9 8 6 7 7 8 9 9 11 14 15 16 17
9 9 7 7 6 6 5 4 3 3 4 4 4 3 3 5 5 5 6 7 7 8 7 7 8 9 9 8 7 7 7 7 7 5 5 5 5 6 8 9 12 15 17
10 9 8 8 7 6 6 6 6 6 7 6 5 5 5 6 6 6 7 7 7 8 7 8 7 7 9 9 7 7 8 8 7 7 6 5 5 6 7 7 8 10 14
10 9 9 8 8 7 6 6 6 7 7 6 6 6 7 7 6 7 7 7 7 7 7 7 8 9 9 9 9 8 8 8 10 10 10 8 7 7 6 7 8 8 11
9 9 8 8 7 6 6 6 6 6 7 8 8 8 8 6 6 6 7 7 8 8 7 8 8 9 9 9 9 10 9 9 9 9 11 11 10 9 8 7 8 8 9
Wind_Direction
148 142 140 144 141 136 133 137 143 148 150 150 149 149 149 148 147 145 142 137 131 123 113 103 98 97 99 103 107 110 112 114 116 119 121 122 124 125 128 134 139 122 122
144 141 142 145 142 138 132 130 133 138 142 145 145 145 146 146 146 146 144 141 135 128 116 106 101 100 100 104 109 112 116 122 123 126 130 128 125 127 132 137 122 120 129
143 141 147 145 143 140 135 130 128 129 133 137 139 140 143 144 145 146 146 145 143 136 123 112 107 106 107 108 112 116 120 124 125 136 161 142 129 130 129 119 115 128 131
143 145 149 143 144 141 138 134 131 129 129 132 134 136 139 142 146 150 152 154 154 147 135 125 117 114 114 116 118 121 125 127 132 180 173 131 136 131 133 130 131 135 135
142 143 141 147 147 145 142 139 135 133 132 133 135 138 141 145 152 159 164 167 169 166 157 145 132 128 127 128 130 132 132 131 160 221 121 129 128 135 143 141 142 142 141
146 149 143 152 150 149 147 145 141 139 138 138 140 144 149 155 163 172 178 180 185 184 178 169 155 152 153 152 154 153 152 162 216 169 135 150 134 145 152 151 149 149 148
151 148 145 154 153 153 152 151 148 148 148 149 152 157 163 171 183 193 199 200 208 209 202 197 187 178 180 182 185 186 189 213 247 157 160 153 129 149 163 160 158 157 156
151 150 143 153 155 157 158 157 156 157 159 162 167 172 178 186 198 211 219 222 228 230 226 223 213 202 200 202 205 208 215 239 234 201 194 164 129 160 174 171 168 166 165
152 149 152 158 160 161 161 162 163 166 169 173 179 185 195 205 213 221 229 231 238 240 238 236 231 224 216 215 217 221 227 243 260 225 207 184 150 178 187 183 179 177 175
154 154 156 160 161 170 171 169 172 176 180 184 192 201 213 223 227 228 234 228 240 248 249 245 241 235 229 225 224 227 232 238 245 233 218 180 159 188 198 195 191 189 186
155 156 165 158 163 174 176 162 180 185 193 203 205 204 222 241 242 227 233 220 244 255 258 256 254 246 240 232 227 225 230 239 238 241 228 156 169 193 203 204 202 199 196
163 166 164 167 160 181 181 167 195 200 189 222 234 230 234 245 267 271 188 215 251 262 264 258 257 253 245 242 226 219 232 237 246 237 224 163 183 202 210 210 209 207 205
168 172 166 168 168 184 179 192 196 219 199 229 240 259 263 268 261 270 273 244 247 252 263 257 250 251 249 248 247 234 237 244 242 242 225 180 195 209 216 217 214 213 211
171 170 166 165 168 174 185 202 207 269 266 274 265 286 286 279 277 277 277 280 276 273 269 274 270 264 260 256 252 249 247 245 245 244 239 188 200 213 220 222 220 217 215
168 168 163 165 165 168 171 231 116 276 285 294 338 8 323 290 286 285 284 281 274 269 266 272 276 274 268 258 253 249 248 246 246 245 244 207 209 217 223 225 225 223 219
166 162 160 164 160 160 156 152 146 124 94 25 31 37 9 333 326 300 279 295 294 287 293 287 283 280 276 271 263 256 252 249 245 243 245 234 218 219 223 226 227 226 224
160 160 160 161 157 155 153 151 133 105 76 54 52 47 26 6 359 322 308 287 300 294 284 278 282 277 271 270 266 264 258 254 251 247 245 243 235 223 221 224 227 228 226
159 158 160 155 144 145 141 138 115 88 85 62 33 30 24 3 325 304 302 306 315 294 290 287 279 287 285 281 276 272 267 260 256 251 247 242 240 238 223 220 224 227 227
157 156 155 146 146 146 145 148 130 114 96 75 36 18 13 331 315 300 304 316 294 287 288 291 296 295 292 288 281 270 265 261 258 253 249 247 242 239 238 223 218 224 228
158 161 158 157 152 158 162 161 159 157 159 113 27 33 344 323 320 309 292 304 298 289 287 291 296 285 287 287 288 284 273 265 258 254 251 248 243 240 238 237 228 225 225
169 173 176 175 168 182 189 206 210 223 240 264 298 15 330 328 327 309 307 308 294 291 294 290 287 281 275 288 287 284 274 257 251 252 250 252 246 242 240 238 237 237 229
184 186 189 192 192 204 202 226 254 284 272 282 296 295 305 315 309 301 314 301 301 297 278 280 276 286 288 282 289 296 290 272 237 247 249 246 250 249 244 239 237 236 239
196 198 200 202 205 214 215 227 230 236 254 261 276 277 301 303 301 308 304 304 306 292 289 290 280 271 282 284 277 289 295 296 311 261 252 261 264 261 257 253 244 239 238
205 205 208 211 214 215 221 241 256 273 288 302 300 302 301 289 295 297 297 296 295 294 294 281 281 282 272 276 271 260 271 296 292 291 272 260 268 270 269 265 258 247 241
212 212 211 213 216 218 228 238 252 270 286 292 295 290 290 291 286 290 294 295 291 287 293 296 294 280 274 272 278 276 269 264 259 271 283 287 285 280 275 271 266 258 246
216 216 216 214 219 219 225 237 253 275 286 294 294 296 292 292 289 288 289 288 283 287 288 282 282 273 272 277 277 275 273 272 272 273 278 282 285 286 286 279 266 256 249
Height
1533 1534 1535 1538 1541 1543 1545 1547 1549 1551 1552 1554 1555 1556 1557 1558 1559 1560 1560 1561 1562 1562 1563 1563 1564 1564 1564 1564 1564 1564 1564 1564 1565 1565 1565 1565 1566 1567 1567 1568 1569 1570 1570
1533 1534 1536 1539 1542 1544 1547 1549 1551 1552 1554 1555 1556 1558 1559 1560 1561 1561 1562 1562 1563 1564 1564 1565 1565 1565 1565 1565 1566 1566 1566 1566 1566 1566 1567 1567 1568 1569 1570 1570 1571 1572 1573
1534 1535 1538 1541 1543 1546 1548 1550 1552 1554 1555 1556 1558 1559 1560 1561 1562 1562 1563 1564 1564 1565 1565 1566 1566 1566 1566 1567 1567 1567 1567 1568 1568 1568 1569 1571 1570 1570 1572 1572 1573 1574 1575
1536 1538 1540 1542 1545 1547 1550 1551 1553 1555 1556 1558 1559 1560 1561 1562 1563 1563 1564 1565 1565 1566 1566 1567 1567 1567 1568 1568 1568 1568 1569 1569 1570 1570 1572 1573 1573 1572 1573 1574 1575 1576 1577
1538 1540 1541 1544 1546 1549 1551 1553 1554 1556 1557 1559 1560 1561 1562 1563 1563 1564 1565 1566 1566 1567 1567 1568 1568 1568 1569 1569 1569 1570 1570 1570 1571 1572 1574 1574 1574 1574 1574 1576 1577 1578 1579
1539 1542 1543 1545 1548 1550 1552 1554 1556 1557 1558 1560 1561 1562 1562 1563 1564 1565 1566 1566 1567 1568 1568 1569 1569 1569 1570 1570 1570 1571 1571 1572 1572 1576 1576 1576 1575 1575 1575 1577 1578 1579 1580
1542 1544 1545 1547 1549 1551 1553 1555 1556 1558 1559 1560 1561 1562 1563 1564 1565 1565 1566 1567 1567 1568 1569 1569 1569 1570 1570 1571 1571 1572 1572 1573 1575 1577 1577 1577 1576 1576 1576 1578 1579 1580 1582
1544 1546 1546 1548 1550 1552 1554 1556 1557 1559 1560 1561 1562 1562 1563 1564 1565 1566 1566 1567 1567 1568 1568 1569 1569 1570 1570 1571 1571 1572 1573 1573 1575 1577 1577 1577 1576 1576 1577 1578 1580 1581 1582
1546 1548 1548 1550 1551 1553 1555 1556 1558 1559 1560 1561 1562 1562 1563 1564 1565 1565 1566 1566 1567 1567 1568 1568 1569 1569 1570 1570 1571 1572 1572 1573 1575 1577 1577 1577 1576 1576 1577 1579 1580 1581 1583
1546 1549 1550 1552 1553 1554 1555 1556 1557 1559 1560 1560 1561 1562 1562 1563 1564 1564 1565 1565 1566 1566 1567 1567 1567 1568 1569 1569 1570 1570 1571 1572 1574 1576 1577 1576 1575 1576 1577 1578 1580 1581 1583
1546 1548 1551 1553 1553 1555 1557 1557 1558 1558 1559 1560 1561 1561 1562 1563 1564 1564 1564 1564 1564 1564 1565 1565 1566 1566 1567 1567 1568 1569 1569 1571 1573 1574 1575 1575 1574 1575 1576 1577 1579 1581 1582
1546 1548 1551 1552 1553 1555 1557 1557 1558 1559 1559 1559 1560 1561 1561 1562 1562 1563 1562 1562 1562 1562 1563 1563 1563 1564 1564 1565 1566 1566 1567 1568 1570 1571 1572 1571 1572 1574 1575 1576 1578 1579 1581
1546 1549 1550 1551 1552 1554 1556 1557 1558 1558 1558 1558 1558 1558 1559 1559 1560 1561 1561 1560 1560 1560 1561 1560 1561 1561 1562 1562 1563 1564 1564 1565 1566 1568 1569 1567 1569 1571 1573 1574 1576 1578 1579
1546 1548 1550 1551 1552 1553 1555 1555 1556 1556 1556 1557 1557 1557 1557 1557 1558 1558 1557 1558 1557 1557 1557 1557 1557 1558 1558 1558 1558 1559 1560 1561 1562 1563 1564 1563 1565 1567 1569 1571 1573 1575 1577
1546 1548 1549 1550 1551 1552 1553 1554 1554 1555 1555 1556 1555 1555 1555 1555 1556 1555 1554 1554 1554 1554 1554 1554 1554 1554 1553 1554 1554 1554 1554 1555 1556 1557 1559 1558 1560 1562 1564 1567 1569 1571 1573
1545 1547 1549 1550 1551 1551 1552 1553 1553 1554 1554 1554 1554 1553 1553 1554 1553 1553 1552 1551 1551 1551 1550 1550 1550 1550 1550 1549 1549 1549 1549 1550 1551 1551 1553 1554 1554 1556 1559 1561 1564 1566 1569
1545 1547 1548 1549 1550 1551 1552 1553 1553 1553 1553 1553 1553 1552 1552 1552 1551 1550 1550 1549 1549 1548 1547 1547 1547 1546 1546 1545 1545 1545 1544 1544 1545 1545 1546 1548 1549 1550 1552 1555 1558 1561 1564
1545 1547 1548 1549 1550 1551 1552 1552 1553 1553 1553 1552 1552 1551 1550 1549 1548 1548 1548 1548 1546 1546 1545 1544 1543 1543 1542 1541 1540 1539 1539 1539 1538 1539 1540 1541 1543 1545 1546 1548 1551 1554 1557
1545 1546 1548 1549 1550 1551 1551 1552 1552 1551 1551 1551 1551 1550 1548 1547 1547 1546 1546 1545 1543 1543 1543 1542 1541 1540 1539 1538 1536 1535 1534 1533 1533 1533 1534 1535 1536 1538 1540 1541 1543 1547 1550
1545 1546 1547 1548 1549 1550 1551 1551 1551 1550 1550 1550 1549 1547 1546 1545 1544 1543 1543 1541 1541 1540 1539 1538 1537 1536 1535 1534 1533 1531 1530 1529 1528 1528 1528 1529 1530 1531 1533 1535 1537 1539 1542
1544 1545 1547 1548 1548 1549 1550 1551 1551 1550 1550 1549 1548 1545 1544 1543 1541 1540 1540 1538 1537 1537 1535 1535 1534 1533 1532 1531 1530 1528 1526 1524 1523 1522 1523 1523 1524 1525 1526 1528 1530 1532 1534
1544 1545 1546 1547 1548 1548 1549 1549 1548 1548 1548 1547 1546 1543 1541 1540 1538 1538 1536 1535 1534 1532 1531 1531 1530 1530 1529 1529 1528 1525 1523 1521 1519 1519 1518 1518 1519 1519 1520 1521 1522 1524 1527
1543 1544 1545 1546 1546 1547 1547 1547 1546 1546 1545 1545 1543 1541 1539 1537 1535 1533 1532 1531 1530 1529 1529 1527 1526 1526 1526 1526 1525 1524 1522 1518 1517 1516 1515 1515 1514 1514 1515 1515 1516 1517 1519
1542 1543 1543 1544 1544 1544 1544 1545 1545 1544 1544 1542 1540 1539 1536 1534 1532 1530 1529 1527 1526 1526 1525 1524 1524 1523 1522 1522 1522 1521 1521 1519 1518 1514 1514 1512 1511 1510 1510 1510 1510 1511 1512
1540 1541 1541 1541 1542 1542 1541 1541 1541 1541 1540 1539 1537 1535 1532 1531 1529 1527 1525 1524 1523 1522 1521 1519 1519 1518 1519 1518 1518 1518 1517 1516 1515 1514 1511 1510 1509 1508 1506 1505 1505 1506 1506
1537 1538 1539 1539 1539 1539 1538 1538 1537 1537 1535 1534 1533 1531 1530 1529 1527 1525 1523 1521 1519 1519 1517 1516 1515 1514 1514 1513 1513 1513 1513 1513 1511 1510 1508 1506 1505 1504 1503 1501 1500 1501 1501